Погода в Риге

Погода в Риге : погода сейчас, прогноз погоды и архив. Всё, что Вы хотите узнать о погоде в Риге!

Поиск расширенной информации на нашем сайте:

Другие новости

Новости СМИ2

Главная страница сайта

Новости сайта

03.07.2017

Напоминаем, что на нашем специализированном сайте Метеоцентр.Азия вы можете получить высокодетализированные автоматические прогнозы погоды по пунктам России, СНГ и мира в авиационном формате (включающие направление и скорость ветра, видимость, явления погоды, количество и форму облачности, нижнюю и верхнюю границу облачности).


Погода в Риге - сегодня

Время (UTC), дата Ветер
(°,м/с) 
Видим.   Явления Облачность Т
(°С)
Тd
(°С)
f(%) Тe
(°С)
Pmin
(гПа)
dP
(гПа)
Po
(мм)
O2
(г/м3)
Тmin Tmax R s Состояние
почвы
18 24.07.17 330 (СЗ) 20000 м    5/0 средняя, верхняя 
[Sc|Ac trans|Ci fib]
+20.4 +11.5 57 +23  1009.9  -0.2  757  281    +23.7       
21 24.07.17 020 (С) 10 км    4/0 средняя 
[Sc|Ac trans]
+17.6 +12.6 72 +24  1009.6  -0.4  757  283           
00 25.07.17 050 (СВ) 10 км    3/0 средняя 
[Sc|Ac trans]
+16.2 +11.5 74 +21  1009.5  -0.1  754  285           
03 25.07.17 070 (В) 10 км    4/0 верхняя 
[Cs]
+15.2 +11.3 78 +19  1008.6  -0.9  756  286           
06 25.07.17 070 (В) 20000 м    3/0 верхняя 
[Cs]
+19.2 +12.8 66 +26  1008.1  -0.4  755  281  +15.2         
09 25.07.17 050 (СВ) 20000 м    9/0 верхняя 
[Cu med, cong|Ci]
+23.4 +11.4 47 +26  1007.7  -0.4  755  277           
12 25.07.17 350 (С) 20000 м    8/0 верхняя 
[Cu med, cong|Ci fib]
+23.9 +13.7 53 +30  1006.6  -1.1  752  276           
15 25.07.17 340 (С) 3{10}  20000 м    8/0 верхняя 
[Cu med, cong|Cs]
+23 +12.5 52 +28  1005.5  -1.1  754  277           
18 25.07.17 350 (С) 2{10}  20000 м    10/0 верхняя 
[Sc diur, vesp|Ci fib]
+20.7 +12.8 61 +26  1005.2  -0.3  753  279    +24.2       
21 25.07.17 040 (СВ) 10 км    4/0 верхняя 
[Cu med, cong|Ci fib]
+19.3 +12 63 +24  1005  -0.2  753  280           
00 26.07.17 020 (С) 10 км    5/0 верхняя 
[Ci fib]
+17.1 +12.6 75 +23  1004.1  -1  750  282           
03 26.07.17 030 (СВ) 10 км    10/0 верхняя 
[Cs]
+16 +13.2 83 +22  1002.6  -1.5  751  282           
06 26.07.17 040 (СВ) 10 км    10/0 средняя, верхняя 
[Ac und|Ci fib]
+19.9 +14.8 72 +29  1001.9  -0.6  751  278  +15.9         
09 26.07.17 070 (В) 3{10}  10 км    10/0 
[Sc]
+22 +15 64 +31  1001.3  -0.6  750  276           
12 26.07.17 040 (СВ) 4{10}  10 км    9/0 средняя, верхняя 
[Cu Sc|Ac trans|Cc]
+23.8 +15.2 59 +33  1000.2  -1  747  274           
15 26.07.17 070 (В) 10 км    10/0 
[Sc]
+24 +15.2 58 +33  1000.3  0.1  750  274           
18 26.07.17 030 (СВ) 2{10}  10 км    9/0 средняя, верхняя 
[Sc|Ac trans|Ci fib]
+22.3 +16 68 +33  1000.6  0.2  750  275    +24.5       
21 26.07.17 030 (СВ) 10 км    8/0 средняя, верхняя 
[Sc|Ac trans|Ci fib]
+20.5 +15.4 73 +30  1001.2  0.6  750  277           
00 27.07.17 060 (СВ) 10 км  слаб. ливневой дождь  10/0 кучево-дожд. 
[Cb cap]
+18.9 +16.2 84 +31  1001.5  0.3  748  278           
03 27.07.17 070 (В) 10 км  {ливн. осадки}  10/0 
[St]
+18.1 +17 93 +32  1001.5  751  279           
06 27.07.17 130 (ЮВ) 2000 м  слаб. морось{ливн. осадки}  10/0 
[St]
+18.3 +17.6 96 +34  1002  0.5  751  279  +18    0.8     
09 27.07.17 170 (Ю) 4000 м  слаб. морось  10/0 
[St]
+18.3 +17.6 96 +33  1003.2  1.2  752  279           
12 27.07.17 160 (Ю) 10 км  {морось}  9/0 средняя 
[Cu Sc|Ac und]
+22.9 +16.8 68 +35  1003.7  0.5  750  275           
15 27.07.17 160 (Ю) 20000 м    8/0 средняя, верхняя 
[Cu Sc|Ac und|Ci fib]
+24.3 +15.4 58 +34  1003.6  752  274           
18 27.07.17 130 (ЮВ) 20000 м    3/0 средняя 
[Ac und]
+22.4 +14.7 62 +31  1004  0.3  752  276    +24.8       
Время (UTC), дата Ветер
(°,м/с) 
Видим.   Явления Облачность Т
(°С)
Тd
(°С)
f(%) Тe
(°С)
Pmin
(гПа)
dP
(гПа)
Po
(мм)
O2
(г/м3)
Тmin Tmax R s Состояние
почвы

Для получения пояснительной информации подведите курсор к названию столбца.

ПОГОДА в Риге - архив

Всё, что Вы хотите узнать о погоде в Риге - удобно и подробно!

Выберите нужную дату (начиная с 1 января 2015* года) и нажмите кнопку "Найти".
Будут отображены архивные сводки погоды по пункту Рига, начиная с указанной даты.


Отображать данные в формате CSV (для использования в таблицах Excel)


Внимание! Наш архив погоды предназначен исключительно для личного некоммерческого использования в познавательных целях. Если Вам необходимы официальные справки о состоянии погоды (для производственных, юридических, коммерческих и т.п. целей), обращайтесь в органы Росгидромета.

*Примечание: данная дата относится к архиву по метеостанциям СССР (Россия, СНГ, Балтия).
Архив по метеостанциям Зарубежной Европы и Азии (кроме Китая) хранится 10 дней, по другим регионам земного шара (Китай, Африка, Америка, Австралия, Океания) - 1 день.

Рига - район местоположения метеостанции


Название, широта, долгота, высота метеостанции:
Рига 57°ш. 24.1°д. 7 м над ур. моря [Латвия]

Дополнительная информация

В oтличие oт бoльшинства пoгoдных сайтoв мы публикуем пoдрoбную метеoинфoрмацию в детальнoм прoфессиoнальнoм фoрмате.

Характеристики температуры и влажнoсти вoздуха измеряются на высoте 2 м в тени вдали oт зданий и деревьев.
Скoрoсть ветра измеряется на высoте 10 м (на урoвне рoста челoвека скoрoсть ветра ниже в 1.5-2 раза). Если метеoстанция нахoдится в гoрoде или в лесу, тo скoрoсть ветра занижена на 2-4 м/с пo сравнению с oткрытым местoм. Скoрoсть ветра над акватoриями крупных рек и oзёр, а также на вершинах хoлмoв на 2-5 м/с выше, чем в oбычных услoвиях.
Атмoсфернoе давление в разных тoчках местнoсти мoжет значительнo oтличаться oт давления на метеoстанции, в зависимoсти oт услoвий рельефа (при пoдъёме на 10 м давление пoнижается примернo на 1 мм рт.ст.).